JCSAT-14

Last updated on Feb. 23, 2020, 12:02 a.m. UTC

1 45245U 20013A   20051.78385154 -.00000178  00000-0  00000+0 0  9991
2 45245   5.7427 311.3133 6778755 178.7926  47.3473  2.18720371    40
UTC
Height (km)
Latitude
Longitude
Inclination
Orbital Period
UTC large
Height (km)
Speed (km/s)
/
Latitude / Longitude
Inclination (degrees)
Orbital Period (minutes)
Azimuth
Elevation
Range (km)
Doppler Factor
iOS Compass Heading
iOS Angle

Next 30 passes for location: Hong Kong

Rise time Rise Azimuth (degrees) Set time Set Azimuth (degrees) Duration Max altitude (degrees)

No matching passes for this satellites